Regional Weather Roundup
Issued by NWS

Home | Current Version | Previous Version | Graphics & Text | Print | Product List | Glossary On
Versions: 1 2 3 4 5 6 7 8 9 10 11 12 13 14 15 16 17 18 19 20 21 22 23 24 25 26 27 28 29 30 31 32 33 34 35 36 37 38 39 40 41 42 43 44 45 46 47 48 49 50
000
ASUS43 KIND 050009
RWRIN

WEATHER ROUNDUP FOR INDIANA
NATIONAL WEATHER SERVICE INDIANAPOLIS IN
800 PM EDT SAT JUL 04 2015

NOTE: "FAIR" INDICATES FEW OR NO CLOUDS BELOW 12,000 FEET WITH NO
SIGNIFICANT WEATHER AND/OR OBSTRUCTIONS TO VISIBILITY.

* - STATION DOES NOT REPORT WEATHER SUCH AS PRECIPITATION OR FOG.

+ - STATION NOT QUALITY CONTROLLED BY THE NATIONAL WEATHER SERVICE.
    USE DATA WITH CAUTION...ESPECIALLY DEWPOINT AND RELATIVE
    HUMIDITY OBSERVATIONS.

INZ001>003-010>013-019-020-050100-
NORTHWEST INDIANA

CITY           SKY/WX    TMP DP  RH WIND       PRES   REMARKS
GARY /AIRPORT/ SUNNY    N/A N/A N/A E8        29.99S
KNOX *+        SUNNY     73  59  60 N6        29.98S
LA PORTE +     SUNNY     78  62  58 NE5       30.00S
6HR MIN TEMP:  78; 6HR MAX TEMP:  81;

MICHIGAN CITY+ SUNNY     73  57  56 NE3       30.00S
MONTICELLO +   MOSUNNY   78  59  52 CALM      29.98S
6HR MIN TEMP:  75; 6HR MAX TEMP:  79;

RENSSELAER +   SUNNY     77  61  57 CALM      29.99S
VALPARAISO     SUNNY     77  60  55 W3        29.99F
6HR MIN TEMP:  76; 6HR MAX TEMP:  80;


$$

LMZ046-743>745-050100-
SOUTHERN LAKE MICHIGAN

STATION/POSITION TIME  TEMP    WIND        PRES    WAVE
                       AIR SEA DIR/SP/G            HT
                 (UTC) (F)     (DEG/KT/KT) (MB)    (FT)
BURNS HARBOR     0000   70      70/ 10/ 12 1015.9S
MICHIGAN CITY    0000   69      40/ 10/ 11   N/A
5NW MICH CITY    0000   67 65   90/  6/  6   N/A     1

$$

INZ004-005-014>016-021>024-050100-
NORTH CENTRAL INDIANA

CITY           SKY/WX    TMP DP  RH WIND       PRES   REMARKS
GOSHEN         SUNNY     74  61  63 W5        29.99F
6HR MIN TEMP:  74; 6HR MAX TEMP:  78;

LOGANSPORT +   SUNNY     73  55  53 CALM      30.01R
PERU/GRISSOM   SUNNY     76  60  57 CALM      30.00R
6HR MIN TEMP:  75; 6HR MAX TEMP:  79;

ROCHESTER +    SUNNY     77  59  53 CALM      30.00S
SOUTH BEND     SUNNY     76  55  48 N5        30.00F
6HR MIN TEMP:  76; 6HR MAX TEMP:  81;

WARSAW +         N/A     73  61  64 CALM      30.00S

$$

INZ006>009-017-018-025>027-050100-
NORTHEAST INDIANA

CITY           SKY/WX    TMP DP  RH WIND       PRES   REMARKS
ANGOLA *+        N/A     79  73  83 CALM      30.01F
AUBURN +       SUNNY     75  55  50 CALM      30.01S
FORT WAYNE     MOSUNNY   75  59  57 N5        30.01R
6HR MIN TEMP:  75; 6HR MAX TEMP:  80;

HUNTINGTON +   SUNNY     75  58  55 CALM      30.00R
6HR MIN TEMP:  75; 6HR MAX TEMP:  79;


$$

INZ028-029-035-036-043>045-051>053-050100-
WEST CENTRAL INDIANA

CITY           SKY/WX    TMP DP  RH WIND       PRES   REMARKS
CRAWFORDSVL +  SUNNY     74  55  49 CALM      29.99S
6HR MIN TEMP:  74; 6HR MAX TEMP:  77;

GREENCASTLE +  MOSUNNY   77  54  44 CALM      30.00S
LAFAYETTE      SUNNY     76  61  59 W3        29.99R
6HR MIN TEMP:  76; 6HR MAX TEMP:  79;

TERRE HAUTE    MOSUNNY   78  63  59 N3        29.99R
6HR MIN TEMP:  77; 6HR MAX TEMP:  82;


$$

INZ030>032-037>040-046>048-054>057-064-065-050100-
CENTRAL INDIANA

CITY           SKY/WX    TMP DP  RH WIND       PRES   REMARKS
CP ATTERBURY + MOSUNNY   77  63  61 N3        29.99S
COLUMBUS       SUNNY     75  63  64 NE3       29.99S
FRANKFORT +    SUNNY     76  60  58 N3        30.02S
6HR MIN TEMP:  76; 6HR MAX TEMP:  81;

GREENWOOD *+   MOSUNNY   77  55  47 CALM      30.00R
INDIANAPOLIS   MOSUNNY   78  55  44 NW7       29.98S
6HR MIN TEMP:  77; 6HR MAX TEMP:  82;

-EAGLE CREEK   SUNNY     78  58  49 N3        29.99R
6HR MIN TEMP:  77; 6HR MAX TEMP:  80;

KOKOMO *+      SUNNY     79  59  50 N3        30.00R
6HR MIN TEMP:  77; 6HR MAX TEMP:  81;

MARION +       SUNNY     75  57  53 CALM      30.01R
MT COMFORT *+  SUNNY     77  52  41 N6        30.01R
SHELBYVILLE    MOSUNNY   79  67  66 CALM      29.99R
6HR MIN TEMP:  78; 6HR MAX TEMP:  83;

ZIONSVILLE +   SUNNY     77  58  52 N5        30.01R
6HR MIN TEMP:  77; 6HR MAX TEMP:  80;


$$

INZ033-034-041-042-049-050-058-059-050100-
EAST CENTRAL INDIANA

CITY           SKY/WX    TMP DP  RH WIND       PRES   REMARKS
MUNCIE         SUNNY     76  58  53 N6        30.01R
6HR MIN TEMP:  76; 6HR MAX TEMP:  80;


$$

INZ060-061-067>069-081>083-085>088-050100-
SOUTHWEST INDIANA

CITY           SKY/WX    TMP DP  RH WIND       PRES   REMARKS
EVANSVILLE     CLOUDY    79  68  69 NE5       29.97R
6HR MIN TEMP:  79; 6HR MAX TEMP:  83;

HUNTINGBURG *+ PTSUNNY   77  68  73 CALM      29.98R
6HR MIN TEMP:  77; 6HR MAX TEMP:  82;

WASHINGTON +   PTSUNNY   77  67  71 CALM      29.97R
6HR MIN TEMP:  77; 6HR MAX TEMP:  81; 6HR PCP:  0.02;


$$

INZ062-063-066-070>080-084-089>092-050100-
SOUTH CENTRAL AND SOUTHEAST INDIANA

CITY           SKY/WX    TMP DP  RH WIND       PRES   REMARKS
BLOOMINGTON    PTSUNNY   78  64  61 NE6       29.99R
6HR MIN TEMP:  78; 6HR MAX TEMP:  83;

MADISON *+     CLOUDY    79  63  57 CALM      30.01R
NORTH VERNON + MOSUNNY   79  64  61 NE3       30.00R
SEYMOUR +      MOSUNNY   77  66  69 NE3       29.98R

$$



USA.gov is the U.S. government's official web portal to all federal, state and local government web resources and services.